NOAA 16 DEB, 41511

Orbit data source: Space-Track

NOAA 16 DEB, 41511 is space debris in SSO originally from a launch on Thu, 21 Sep 2000 UTC launched from the Air Force Western Test Range (AFWTR). Debris objects in space refer to the collection of defunct objects orbiting the Earth. Examples of debris include non-operational satellites, rocket bodies, and fragments generated from explosions, collisions, or faulty payload assembly.

Loading next visibility...
Identifier
41511, 2000-055MK
Orbit
SSO
Country
Flag of USUS
Related business
Manufacturer
Unknown
Mission
Spacecraft
Bus & Motor
Unknown
Mass
Unknown
Launch date (UTC)
2000-09-21 (26 years ago)
Launch vehicle
Unknown
Launch site
Air Force Western Test Range (AFWTR)
Object type
Payload
Rocket body
Debris
Shape & HBR
Unknown shape, 0.1 m
Radar Cross Section
Medium (>0.1 m² and <1 m²)

Expand to show TLE details & history
Last TLE update: 1 day ago

TLE from 1 day ago
0 NOAA 16 DEB
1 41511U 00055MK  26235.09737706  .00001911  00000-0  86190-3 0  9998
2 41511  98.6844 290.5478 0022146 275.2485  84.6167 14.23226143537449
Epoch: 2026-08-23T02:20Z
TLE epoch observation values (Epoch: 2026-08-23T02:20:13.377Z)
Latitude
0.00002°
Longitude
-75.90626°
Altitude
815.923 km
Speed
7.446 km/s
True Right ascension
19h 22m 11s
True Declination
0° 00' 00"
Sunlit
Object was in full shadow at epoch
Visualization orbit readout
Latitude
Unknown
Longitude
Unknown
Altitude
Unknown
Speed
Unknown
Apparent Right ascension
Unknown
Apparent Declination
Unknown
Sunlit
N/A
Visualization observer readout
Local Sidereal Time
21:06:38
Azimuth
Unknown
Elevation
Unknown
Doppler factor
Unknown
Orbital elements
Apogee altitude
827.538 km
Perigee altitude
795.693 km
Semi-major axis
7,189.753 km
Eccentricity
0.00221
Inclination
98.6844°
RAAN
290.5478°
Arg. of periapsis
275.2485°
True anomaly
84.86942°
Mean anomaly
84.6167°
Eccentric anomaly
84.74305°
Mean motion
3.56018 °/min
Orbital period
101.12 mins
BSTAR
0.0008619
Loading maneuver chart data...
Computing Atmospheric mass density...
Loading historical data...
Loading historical data...
Loading historical data...
Loading historical data...
Loading historical data...
Loading historical data...
Loading historical data...

Documentation

Showing up to 5 results
|